PIESAT-2 10

导读 | 豆包AI

PIESAT-2 10是中国低轨合成孔径雷达(SAR)遥感卫星,隶属于航天宏图PIESAT-2 09~12星组,于北京时间2024年12月17日在太原卫星发射中心由长征二号丁运载火箭发射升空,顺利进入预定轨道。卫星搭载高分辨率SAR载荷,具备高分辨率成像、高精度干涉测量能力,可服务于国土资源、地震监测、防灾减灾等领域,支撑国计民生发展。

Basic Information
目录编号:
62334
目录名称:
PIESAT-2 10
国际标识:
2024-241B
轨道中心:
EARTH
卫星名称:
PIESAT-2 10
卫星全名:
PIESAT-2 10
卫星状态:
在轨 (已飞行525 天)
发射日期:
2024-12-16 UTC
国别 :
中国 (CN)
星等 :
--
Orbit Information
数据来源 国际轨道数据
星历时间: 2026-05-24T21:51:23+0800
12小时前
查看轨道信息
半长轴: 6902.511km
偏心率: 0.0002498
轨道倾角: 97.536°
近地点辐角 82.947°
升交点赤经 92.876°
平近点角 277.204°
近地点: 522.649km
远地点: 526.099km
周期: 95.120分钟
每日圈数: 15.138824
Detailed Information
使用方式:
暂无
2D Orbit Map
3D Orbit Map
Orbit Altitude Analysis Chart
Orbit Inclination Analysis Chart
Orbit Comprehensive Analysis Chart
View Comprehensive Chart